Погода в Хорошеве

Украина / Житомирская область     50°35′45″N   28°26′43″E
темп.,
°C
ветер,
м/с
пор.,
м/с
влажн.,
%
обл.,
%
осадки,
мм/ч
давл.,
гПа
погр.,
м
23 сентября, чт
чт2300:00+5сз4693100 0.1 1016812
03:00+5сз4796100 0.2 1016830
06:00+5зсз4897100 0.3 1016745
09:00+6зсз4796100 0.6 1016917
12:00+7зсз5891100 0.3 1016652
15:00+9зсз5878100 0.4 10151100
18:00+9зсз257883 0.1 1013382
21:00+6юз4691100 0.1 101389
24 сентября, пт
пт2400:00+8ююз4994100 0.6 1010310
03:00+9юз71587100 1.5 1006617
06:00+9юз101993100 5.4 1002768
09:00+11з1016879 9.5 10001049
12:00+12зсз10147466 0.4 10011303
15:00+11зсз10167255 0.8 10021405
18:00+10зсз81686100 1.4 10031475
21:00+10зсз91588100 5.3 10051242
25 сентября, сб
сб2500:00+9зсз81489100 0.9 1007913
03:00+9зсз81489100 1.1 1008864
06:00+9зсз61290100 0.0 1010751
09:00+9зсз61288100 0.0 1013548
12:00+11з51081100 0.0 1014616
15:00+15з71368100 0.0 10131454
18:00+15з61376100 0.0 1014898
21:00+14з61384100 0.1 1015650
26 сентября, вс
вс2600:00+14з61488100 0.1 1015626
03:00+14зсз61289100 0.3 1016601
06:00+13зсз5118784 0.1 1018579
09:00+12сз59810 0.2 1019697
12:00+15ссз67580 0.0 10201023
15:00+17ссз56535 0.0 10201299
18:00+15ссз36646 0.0 1021206
21:00+10ссв368098 0.0 1022103
27 сентября, пн
пн2700:00+8св228598 0.0 102321
03:00+7св33925 0.0 102445
06:00+6всв228990 0.0 102427
09:00+8всв347360 0.0 1025207
12:00+13всв345320 0.0 1024937
15:00+15всв334720 0.0 10231277
18:00+13всв346297 0.0 102379
21:00+9в377376 0.0 1025114